Location: The Saddle
(36.8333°N, 80.3417°W)
Time: 06:52:11
(UTC-04:00)

Vanguard 2 Rocket - Pass Details

Date: 05 February 2022
Orbit: 553 x 3323 km, 32.9° (Epoch: 23 May)

Event Time Altitude Azimuth Distance (km) Brightness Sun altitude
Exits shadow 04:49:20 41° 245° (WSW) 3,764 9.5 -30.5°
Maximum altitude 04:54:41 49° 208° (SSW) 3,698 9.6 -29.4°
Drops below altitude 10° 05:13:36 10° 141° (SE) 6,215 11.6 -25.6°
Sets 05:18:29 0° 136° (SE) 7,102 12.1 -24.7°
